Gadsden, AL

11:05 AM CDT on July 16, 2019 (GMT -0500)
Gadsden Municipal

Weather History for KGAD - May, 2019

Change the Weather History Date:

Tuesday, May 14, 2019

  Actual Average Record
Temperature  
Mean Temperature 60 °F -  
Max Temperature 72 °F 78 °F 91 °F (2018)
Min Temperature 48 °F 54 °F 34 °F (1952)
Degree Days  
Heating Degree Days 6    
Growing Degree Days 10 (Base 50)    
Moisture  
Dew Point 52 °F    
Average Humidity 78    
Maximum Humidity 100    
Minimum Humidity 44    
Precipitation  
Precipitation 0.00 in - - ()
Sea Level Pressure  
Sea Level Pressure 30.05 in    
Wind  
Wind Speed 3 mph (NNW)    
Max Wind Speed 12 mph    
Max Gust Speed 16 mph    
Visibility 10 miles    
Events      
Averages and records for this station are not official NWS values.
T = Trace of Precipitation, MM = Missing Value Source: NWS Daily Summary

Daily Weather History Graph

Daily Weather History Graph

Search for Another Location

Airport or City:

Astronomy

May. 14, 2019 Rise Set
Actual Time 5:43 AM CDT 7:37 PM CDT
Civil Twilight 5:16 AM CDT 8:05 PM CDT
Nautical Twilight 4:43 AM CDT 8:39 PM CDT
Astronomical Twilight 4:07 AM CDT 9:14 PM CDT
Moon 3:15 PM CDT (5/14) 3:18 AM CDT (5/14)
Length of Visible Light 14h 49m
Length of Day
13h 54m
Waxing Gibbous, 79% of the Moon is Illuminated
May 14
Waxing Gibbous
May 18
Full
May 26
Last Quarter
Jun 3
New
Jun 10
First Quarter

Hourly Weather History & Observations

Time (CDT) Temp. Dew Point Humidity Pressure Visibility Wind Dir Wind Speed Gust Speed Precip Events Conditions
12:56 AM 55.0 °F 55.0 °F 100% 29.99 in 10.0 mi Calm Calm - N/A   Clear
1:56 AM 51.1 °F 51.1 °F 100% 30.00 in 10.0 mi Calm Calm - N/A   Clear
3:56 AM 50.0 °F 50.0 °F 100% 30.01 in 10.0 mi Calm Calm - N/A   Clear
4:56 AM 48.0 °F 48.0 °F 100% 30.04 in 10.0 mi Calm Calm - N/A   Clear
5:56 AM 48.9 °F 48.9 °F 100% 30.06 in 10.0 mi NW 4.6 mph - N/A   Clear
6:56 AM 51.1 °F 51.1 °F 100% 30.08 in 10.0 mi Calm Calm - N/A   Clear
7:56 AM 55.9 °F 55.0 °F 97% 30.09 in 10.0 mi Calm Calm - N/A   Clear
8:56 AM 60.1 °F 52.0 °F 75% 30.10 in 10.0 mi North 9.2 mph - N/A   Clear
9:56 AM 63.0 °F 52.0 °F 67% 30.11 in 10.0 mi NNW 6.9 mph - N/A   Mostly Cloudy
10:56 AM 64.0 °F 50.0 °F 60% 30.10 in 10.0 mi NNE 11.5 mph 16.1 mph N/A   Mostly Cloudy
11:56 AM 64.9 °F 51.1 °F 61% 30.10 in 10.0 mi NNW 9.2 mph - N/A   Mostly Cloudy
12:56 PM 68.0 °F 51.1 °F 55% 30.07 in 10.0 mi Variable 5.8 mph - N/A   Clear
1:56 PM 70.0 °F 51.1 °F 51% 30.05 in 10.0 mi NNW 10.4 mph 16.1 mph N/A   Clear
2:56 PM 70.0 °F 48.9 °F 47% 30.03 in 10.0 mi NNW 6.9 mph - N/A   Clear
3:56 PM 71.1 °F 48.0 °F 44% 30.02 in 10.0 mi North 9.2 mph - N/A   Clear
4:56 PM 71.1 °F 48.0 °F 44% 30.01 in 10.0 mi Variable 4.6 mph - N/A   Clear
5:56 PM 70.0 °F 50.0 °F 49% 30.02 in 10.0 mi North 6.9 mph - N/A   Clear
6:56 PM 66.9 °F 52.0 °F 59% 30.03 in 10.0 mi WNW 4.6 mph - N/A   Clear
7:56 PM 61.0 °F 57.0 °F 87% 30.04 in 10.0 mi Calm Calm - N/A   Clear
8:56 PM 57.0 °F 57.0 °F 100% 30.05 in 10.0 mi Calm Calm - N/A   Clear
9:56 PM 54.0 °F 54.0 °F 100% 30.06 in 10.0 mi SSW 3.5 mph - N/A   Clear
10:56 PM 53.1 °F 53.1 °F 100% 30.06 in 10.0 mi Calm Calm - N/A   Clear
11:56 PM 52.0 °F 52.0 °F 100% 30.06 in 10.0 mi Calm Calm - N/A   Clear